Time,TemperatureF,DewpointF,PressureIn,WindDirection,WindDirectionDegrees,WindSpeedMPH,WindSpeedGustMPH,Humidity,HourlyPrecipIn,Conditions,Clouds,dailyrainin,SoftwareType,DateUTC
2013-03-07 00:12:00,36.8,36.0,29.99,NNW,329,0.0,0.0,96,0.00,,,0.00,weatherlink.com 1.10,2013-03-07 08:12:00,
2013-03-07 00:27:00,36.5,36.0,29.98,NNW,329,0.0,0.0,96,0.00,,,0.00,weatherlink.com 1.10,2013-03-07 08:27:00,
2013-03-07 00:42:00,36.3,35.0,29.98,NNW,329,0.0,0.0,96,0.00,,,0.00,weatherlink.com 1.10,2013-03-07 08:42:00,
2013-03-07 00:57:00,36.2,35.0,29.98,NNW,328,0.0,0.0,96,0.00,,,0.00,weatherlink.com 1.10,2013-03-07 08:57:00,
2013-03-07 01:12:00,36.2,35.0,29.98,NNW,329,0.0,0.0,96,0.00,,,0.00,weatherlink.com 1.10,2013-03-07 09:12:00,
2013-03-07 01:27:00,36.1,35.0,29.98,NNW,329,0.0,0.0,96,0.00,,,0.00,weatherlink.com 1.10,2013-03-07 09:27:00,
2013-03-07 01:42:00,36.0,35.0,29.98,NNW,328,0.0,0.0,96,0.00,,,0.00,weatherlink.com 1.10,2013-03-07 09:42:00,
2013-03-07 01:57:00,35.8,35.0,29.99,NNW,328,0.0,0.0,96,0.00,,,0.00,weatherlink.com 1.10,2013-03-07 09:57:00,
2013-03-07 02:12:00,35.6,35.0,29.98,NNW,329,0.0,0.0,96,0.00,,,0.00,weatherlink.com 1.10,2013-03-07 10:12:00,
2013-03-07 02:27:00,35.6,35.0,29.97,NNW,329,0.0,0.0,96,0.00,,,0.00,weatherlink.com 1.10,2013-03-07 10:27:00,
2013-03-07 02:42:00,35.4,34.0,29.97,NNW,329,0.0,0.0,96,0.00,,,0.00,weatherlink.com 1.10,2013-03-07 10:42:00,
2013-03-07 02:57:00,35.3,34.0,29.96,NNW,328,0.0,0.0,96,0.00,,,0.00,weatherlink.com 1.10,2013-03-07 10:57:00,
2013-03-07 03:12:00,35.4,34.0,29.96,NNW,328,0.0,0.0,96,0.00,,,0.00,weatherlink.com 1.10,2013-03-07 11:12:00,
2013-03-07 03:27:00,35.2,34.0,29.96,NNW,328,0.0,0.0,96,0.00,,,0.00,weatherlink.com 1.10,2013-03-07 11:27:00,
2013-03-07 03:42:00,35.0,34.0,29.95,NNW,329,0.0,0.0,96,0.00,,,0.00,weatherlink.com 1.10,2013-03-07 11:42:00,
2013-03-07 03:58:00,35.2,34.0,29.95,NNW,328,0.0,0.0,96,0.00,,,0.00,weatherlink.com 1.10,2013-03-07 11:58:00,
2013-03-07 04:13:00,35.2,34.0,29.95,NNW,328,0.0,0.0,96,0.00,,,0.00,weatherlink.com 1.10,2013-03-07 12:13:00,
2013-03-07 04:28:00,35.2,34.0,29.95,NNW,328,0.0,0.0,96,0.00,,,0.00,weatherlink.com 1.10,2013-03-07 12:28:00,
2013-03-07 04:43:00,35.2,34.0,29.95,NNW,328,0.0,0.0,96,0.00,,,0.00,weatherlink.com 1.10,2013-03-07 12:43:00,
2013-03-07 04:58:00,35.2,34.0,29.95,NNW,329,0.0,0.0,96,0.00,,,0.00,weatherlink.com 1.10,2013-03-07 12:58:00,
2013-03-07 05:13:00,35.1,34.0,29.94,NNW,328,0.0,0.0,96,0.00,,,0.00,weatherlink.com 1.10,2013-03-07 13:13:00,
2013-03-07 05:28:00,35.0,34.0,29.94,NNW,328,0.0,0.0,96,0.00,,,0.00,weatherlink.com 1.10,2013-03-07 13:28:00,
2013-03-07 05:43:00,34.9,34.0,29.94,NNW,329,0.0,0.0,96,0.00,,,0.00,weatherlink.com 1.10,2013-03-07 13:43:00,
2013-03-07 05:58:00,34.9,34.0,29.94,NNW,329,0.0,0.0,97,0.00,,,0.00,weatherlink.com 1.10,2013-03-07 13:58:00,
2013-03-07 06:13:00,35.0,34.0,29.94,NNW,328,0.0,0.0,97,0.00,,,0.00,weatherlink.com 1.10,2013-03-07 14:13:00,
2013-03-07 06:28:00,35.0,34.0,29.94,NNW,329,0.0,0.0,97,0.00,,,0.00,weatherlink.com 1.10,2013-03-07 14:28:00,
2013-03-07 06:58:00,35.2,35.0,29.94,NNW,329,0.0,0.0,97,0.00,,,0.00,weatherlink.com 1.10,2013-03-07 14:58:00,
2013-03-07 07:13:00,35.5,35.0,29.94,NNW,328,0.0,0.0,97,0.00,,,0.00,weatherlink.com 1.10,2013-03-07 15:13:00,
2013-03-07 07:28:00,35.8,35.0,29.95,NNW,329,0.0,0.0,97,0.00,,,0.00,weatherlink.com 1.10,2013-03-07 15:28:00,
2013-03-07 07:43:00,36.2,36.0,29.96,NNW,328,0.0,0.0,97,0.00,,,0.00,weatherlink.com 1.10,2013-03-07 15:43:00,
2013-03-07 07:58:00,36.6,36.0,29.96,NNW,328,0.0,0.0,97,0.00,,,0.00,weatherlink.com 1.10,2013-03-07 15:58:00,
2013-03-07 08:13:00,37.2,37.0,29.95,NNW,328,0.0,0.0,97,0.00,,,0.00,weatherlink.com 1.10,2013-03-07 16:13:00,
2013-03-07 08:28:00,37.8,37.0,29.95,NNW,329,0.0,0.0,97,0.00,,,0.00,weatherlink.com 1.10,2013-03-07 16:28:00,
2013-03-07 08:43:00,38.9,38.0,29.94,NNW,329,0.0,0.0,97,0.00,,,0.00,weatherlink.com 1.10,2013-03-07 16:43:00,
2013-03-07 08:58:00,40.0,40.0,29.94,NNW,329,0.0,0.0,98,0.00,,,0.00,weatherlink.com 1.10,2013-03-07 16:58:00,
2013-03-07 09:13:00,41.4,41.0,29.94,NNW,329,0.0,0.0,98,0.00,,,0.00,weatherlink.com 1.10,2013-03-07 17:13:00,
2013-03-07 09:28:00,42.9,42.0,29.94,NNW,328,0.0,0.0,98,0.00,,,0.00,weatherlink.com 1.10,2013-03-07 17:28:00,
2013-03-07 09:43:00,43.9,43.0,29.94,NNW,328,0.0,1.0,98,0.00,,,0.00,weatherlink.com 1.10,2013-03-07 17:43:00,
2013-03-07 09:58:00,44.8,44.0,29.94,NW,309,0.0,1.0,97,0.00,,,0.00,weatherlink.com 1.10,2013-03-07 17:58:00,
2013-03-07 10:28:00,47.5,42.0,29.93,NE,51,1.0,3.0,82,0.00,,,0.00,weatherlink.com 1.10,2013-03-07 18:28:00,
2013-03-07 10:43:00,48.2,42.0,29.93,North,354,0.0,4.0,78,0.00,,,0.00,weatherlink.com 1.10,2013-03-07 18:43:00,
2013-03-07 10:59:00,49.2,43.0,29.93,NW,320,0.0,3.0,79,0.00,,,0.00,weatherlink.com 1.10,2013-03-07 18:59:00,
2013-03-07 11:13:00,50.3,42.0,29.93,NW,319,0.0,4.0,74,0.00,,,0.00,weatherlink.com 1.10,2013-03-07 19:13:00,
2013-03-07 11:29:00,51.4,42.0,29.93,NE,54,0.0,5.0,70,0.00,,,0.00,weatherlink.com 1.10,2013-03-07 19:29:00,
2013-03-07 11:45:00,53.3,42.0,29.92,WNW,302,0.0,2.0,65,0.00,,,0.00,weatherlink.com 1.10,2013-03-07 19:45:00,
2013-03-07 11:59:00,53.7,41.0,29.91,ENE,78,0.0,2.0,63,0.00,,,0.00,weatherlink.com 1.10,2013-03-07 19:59:00,
2013-03-07 12:14:00,53.9,41.0,29.91,NNW,335,0.0,5.0,62,0.00,,,0.00,weatherlink.com 1.10,2013-03-07 20:14:00,
2013-03-07 12:29:00,53.0,40.0,29.90,SW,231,0.0,2.0,61,0.00,,,0.00,weatherlink.com 1.10,2013-03-07 20:29:00,
2013-03-07 12:44:00,52.3,41.0,29.89,West,277,0.0,3.0,66,0.00,,,0.00,weatherlink.com 1.10,2013-03-07 20:44:00,
2013-03-07 12:59:00,52.4,42.0,29.89,East,84,3.0,3.0,67,0.00,,,0.00,weatherlink.com 1.10,2013-03-07 20:59:00,
2013-03-07 13:14:00,51.8,39.0,29.88,WNW,296,1.0,3.0,61,0.00,,,0.00,weatherlink.com 1.10,2013-03-07 21:14:00,
2013-03-07 13:29:00,52.0,40.0,29.87,ENE,71,0.0,2.0,64,0.00,,,0.00,weatherlink.com 1.10,2013-03-07 21:29:00,
2013-03-07 13:44:00,52.3,41.0,29.86,North,6,1.0,1.0,65,0.00,,,0.00,weatherlink.com 1.10,2013-03-07 21:44:00,
2013-03-07 13:59:00,52.1,39.0,29.86,ENE,68,0.0,1.0,61,0.00,,,0.00,weatherlink.com 1.10,2013-03-07 21:59:00,
2013-03-07 14:14:00,52.7,40.0,29.86,NW,312,0.0,2.0,63,0.00,,,0.00,weatherlink.com 1.10,2013-03-07 22:14:00,
2013-03-07 14:29:00,52.6,38.0,29.86,WSW,248,1.0,3.0,58,0.00,,,0.00,weatherlink.com 1.10,2013-03-07 22:29:00,
2013-03-07 14:44:00,52.8,42.0,29.86,WSW,257,0.0,0.0,68,0.00,,,0.00,weatherlink.com 1.10,2013-03-07 22:44:00,
2013-03-07 14:59:00,52.5,43.0,29.85,SW,219,0.0,1.0,70,0.00,,,0.00,weatherlink.com 1.10,2013-03-07 22:59:00,
2013-03-07 15:14:00,51.8,42.0,29.85,NNW,328,3.0,4.0,69,0.00,,,0.00,weatherlink.com 1.10,2013-03-07 23:14:00,
2013-03-07 15:29:00,50.8,41.0,29.85,NW,323,1.0,2.0,69,0.00,,,0.00,weatherlink.com 1.10,2013-03-07 23:29:00,
2013-03-07 15:44:00,50.1,42.0,29.86,NNW,330,1.0,2.0,75,0.00,,,0.00,weatherlink.com 1.10,2013-03-07 23:44:00,
2013-03-07 15:59:00,49.7,42.0,29.86,NW,311,1.0,2.0,76,0.00,,,0.00,weatherlink.com 1.10,2013-03-07 23:59:00,
2013-03-07 16:14:00,49.4,43.0,29.85,NNW,330,1.0,2.0,78,0.00,,,0.00,weatherlink.com 1.10,2013-03-08 00:14:00,
2013-03-07 16:29:00,48.7,43.0,29.85,NNW,330,0.0,1.0,80,0.00,,,0.00,weatherlink.com 1.10,2013-03-08 00:29:00,
2013-03-07 16:44:00,48.6,44.0,29.85,NNW,330,0.0,0.0,85,0.00,,,0.00,weatherlink.com 1.10,2013-03-08 00:44:00,
2013-03-07 16:59:00,48.3,45.0,29.85,NNW,330,0.0,0.0,87,0.00,,,0.00,weatherlink.com 1.10,2013-03-08 00:59:00,
2013-03-07 17:14:00,47.8,45.0,29.85,NNW,330,0.0,0.0,90,0.00,,,0.00,weatherlink.com 1.10,2013-03-08 01:14:00,
2013-03-07 17:29:00,47.4,45.0,29.85,NNW,330,0.0,0.0,90,0.00,,,0.00,weatherlink.com 1.10,2013-03-08 01:29:00,
2013-03-07 17:44:00,46.8,44.0,29.86,NNW,330,0.0,0.0,91,0.00,,,0.00,weatherlink.com 1.10,2013-03-08 01:44:00,
2013-03-07 17:59:00,46.4,44.0,29.85,NNW,330,0.0,0.0,92,0.00,,,0.00,weatherlink.com 1.10,2013-03-08 01:59:00,
2013-03-07 18:14:00,46.2,44.0,29.86,NNW,330,0.0,0.0,92,0.00,,,0.00,weatherlink.com 1.10,2013-03-08 02:14:00,
2013-03-07 18:29:00,46.1,45.0,29.85,NNW,330,0.0,0.0,94,0.01,,,0.01,weatherlink.com 1.10,2013-03-08 02:29:00,
2013-03-07 18:44:00,45.7,44.0,29.86,NNW,330,0.0,0.0,94,0.01,,,0.01,weatherlink.com 1.10,2013-03-08 02:44:00,
2013-03-07 18:59:00,45.3,44.0,29.86,NNW,330,0.0,0.0,94,0.01,,,0.01,weatherlink.com 1.10,2013-03-08 02:59:00,
2013-03-07 19:14:00,45.0,44.0,29.86,NNW,330,0.0,0.0,95,0.02,,,0.02,weatherlink.com 1.10,2013-03-08 03:14:00,
2013-03-07 19:29:00,44.8,44.0,29.86,NNW,330,0.0,0.0,95,0.02,,,0.03,weatherlink.com 1.10,2013-03-08 03:29:00,
2013-03-07 19:44:00,44.6,43.0,29.86,NNW,330,0.0,0.0,95,0.03,,,0.04,weatherlink.com 1.10,2013-03-08 03:44:00,
2013-03-07 19:59:00,44.4,43.0,29.86,NNW,330,0.0,0.0,95,0.04,,,0.05,weatherlink.com 1.10,2013-03-08 03:59:00,
2013-03-07 20:14:00,44.3,43.0,29.86,NNW,328,0.0,0.0,95,0.05,,,0.07,weatherlink.com 1.10,2013-03-08 04:14:00,
2013-03-07 20:29:00,44.2,43.0,29.86,NNW,329,0.0,0.0,95,0.05,,,0.08,weatherlink.com 1.10,2013-03-08 04:29:00,
2013-03-07 20:44:00,44.1,43.0,29.86,NNW,328,0.0,0.0,95,0.06,,,0.10,weatherlink.com 1.10,2013-03-08 04:44:00,
2013-03-07 20:59:00,44.1,43.0,29.86,West,274,0.0,1.0,96,0.08,,,0.13,weatherlink.com 1.10,2013-03-08 04:59:00,
2013-03-07 21:29:00,43.7,43.0,29.85,West,274,0.0,0.0,96,0.11,,,0.19,weatherlink.com 1.10,2013-03-08 05:29:00,
2013-03-07 21:44:00,43.6,43.0,29.86,West,259,0.0,0.0,96,0.13,,,0.23,weatherlink.com 1.10,2013-03-08 05:44:00,
2013-03-07 21:59:00,43.5,43.0,29.85,WSW,258,0.0,0.0,96,0.12,,,0.25,weatherlink.com 1.10,2013-03-08 05:59:00,
2013-03-07 22:14:00,43.3,42.0,29.85,WSW,256,0.0,1.0,96,0.11,,,0.27,weatherlink.com 1.10,2013-03-08 06:14:00,
2013-03-07 22:29:00,43.2,42.0,29.85,SSW,203,0.0,1.0,96,0.10,,,0.29,weatherlink.com 1.10,2013-03-08 06:29:00,
2013-03-07 22:44:00,43.2,42.0,29.85,SSW,203,0.0,0.0,96,0.07,,,0.30,weatherlink.com 1.10,2013-03-08 06:44:00,
2013-03-07 22:59:00,43.1,42.0,29.85,SSW,203,0.0,0.0,96,0.06,,,0.31,weatherlink.com 1.10,2013-03-08 06:59:00,
2013-03-07 23:14:00,43.1,42.0,29.85,SSW,203,0.0,0.0,96,0.06,,,0.33,weatherlink.com 1.10,2013-03-08 07:14:00,
2013-03-07 23:29:00,43.1,42.0,29.85,SSW,203,0.0,0.0,96,0.05,,,0.34,weatherlink.com 1.10,2013-03-08 07:29:00,
2013-03-07 23:44:00,43.0,42.0,29.85,SSW,203,0.0,0.0,96,0.07,,,0.37,weatherlink.com 1.10,2013-03-08 07:44:00,
2013-03-07 23:59:00,43.0,42.0,29.84,SSW,203,0.0,0.0,96,0.08,,,0.39,weatherlink.com 1.10,2013-03-08 07:59:00,